FW1299 Weather Reports


Display with metric or nautical units.
time (UTC)temp
F
wind
direction
speed
MPH
gust
MPH
rain 1hr
in
rain 24hr
in
rain mn
in
humidity
%
barometer
mb
20260903234823 78 257 0.0 0.0 0.00 0.37 0.36 92 1012.4
20260903233823 79 257 0.0 1.0 0.00 0.37 0.36 92 1012.3
20260903231818 82 257 0.0 0.0 0.00 0.37 0.36 85 1012.2
20260903230817 84 257 0.0 0.0 0.00 0.37 0.36 82 1012.1
20260903225816 85 257 0.0 2.0 0.00 0.37 0.36 80 1012.1
20260903224820 88 259 0.0 1.0 0.00 0.37 0.36 78 1012.1
20260903223818 89 259 0.0 1.0 0.00 0.37 0.36 78 1012.1
20260903222818 88 236 0.0 1.0 0.00 0.37 0.36 79 1012.2
20260903221818 87 278 0.0 1.0 0.00 0.37 0.36 79 1012.2
20260903220818 87 250 0.0 3.0 0.00 0.37 0.36 75 1012.1
20260903215817 87 278 0.0 2.0 0.00 0.37 0.36 75 1012.1
20260903214815 88 273 0.0 2.0 0.00 0.37 0.36 73 1012.2
20260903213814 87 262 0.0 2.0 0.00 0.37 0.36 75 1012.0
20260903211813 87 238 0.0 1.0 0.00 0.37 0.36 75 1012.1
20260903210812 89 228 0.0 2.0 0.00 0.37 0.36 70 1012.2
20260903205813 89 150 0.0 4.0 0.00 0.37 0.36 72 1012.1
20260903204813 89 308 0.0 4.0 0.00 0.37 0.36 71 1012.3
20260903203813 88 242 1.0 6.0 0.00 0.37 0.36 72 1012.4
20260903202811 88 267 1.0 6.0 0.00 0.37 0.36 70 1012.5
20260903201812 89 250 1.0 5.0 0.00 0.37 0.36 72 1012.3
20260903200812 88 271 1.0 6.0 0.00 0.37 0.36 72 1012.3
20260903195806 88 267 1.0 4.0 0.00 0.37 0.36 73 1012.3
20260903194808 88 212 1.0 4.0 0.00 0.37 0.36 74 1012.3
20260903193806 88 240 1.0 4.0 0.00 0.37 0.36 74 1012.6
20260903192806 88 210 1.0 4.0 0.00 0.37 0.36 74 1012.7
20260903190807 87 272 1.0 6.0 0.00 0.37 0.36 78 1012.9
20260903185804 87 282 1.0 7.0 0.00 0.37 0.36 76 1012.9
20260903184802 87 155 0.0 4.0 0.00 0.37 0.36 77 1012.9
20260903183802 86 190 2.0 5.0 0.00 0.37 0.36 78 1013.1
20260903181805 86 246 1.0 5.0 0.00 0.37 0.36 79 1013.6
20260903174754 85 218 2.0 9.0 0.00 0.37 0.36 79 1014.0
20260903172757 84 255 3.0 9.0 0.00 0.37 0.36 82 1014.2
20260903165755 82 260 3.0 9.0 0.00 0.37 0.36 83 1014.5
20260903164749 82 207 2.0 7.0 0.00 0.37 0.36 84 1014.7
20260903163751 82 266 2.0 7.0 0.00 0.37 0.36 84 1015.0
20260903162749 82 202 2.0 7.0 0.00 0.37 0.36 88 1015.1
20260903161749 80 271 2.0 7.0 0.00 0.37 0.36 88 1015.2
20260903160747 80 213 2.0 6.0 0.00 0.37 0.36 88 1015.4
20260903154749 78 266 1.0 6.0 0.00 0.37 0.36 90 1015.6
20260903153749 78 276 2.0 6.0 0.00 0.37 0.36 90 1015.6
20260903152750 78 219 2.0 6.0 0.00 0.37 0.36 92 1015.9
20260903151743 77 265 2.0 7.0 0.00 0.37 0.36 93 1015.9
20260903150742 77 264 2.0 7.0 0.00 0.37 0.36 94 1016.0
20260903145743 76 193 2.0 7.0 0.00 0.37 0.36 96 1015.8
20260903144743 76 237 1.0 6.0 0.00 0.37 0.36 100 1015.8
20260903143742 74 210 2.0 7.0 0.00 0.37 0.36 100 1015.9
20260903142743 75 271 1.0 5.0 0.00 0.37 0.36 100 1015.7
20260903141742 74 238 1.0 5.0 0.00 0.37 0.36 100 1015.6
20260903135744 73 230 1.0 5.0 0.00 0.37 0.36 100 1015.3
20260903134737 73 287 1.0 4.0 0.00 0.37 0.36 100 1015.3
20260903133734 73 273 1.0 4.0 0.00 0.37 0.36 100 1015.3
20260903132734 72 262 0.0 3.0 0.00 0.38 0.36 100 1015.4
20260903131735 72 276 0.0 3.0 0.00 0.38 0.36 100 1015.5
20260903130737 72 248 0.0 3.0 0.00 0.38 0.36 100 1015.8
20260903125734 71 275 0.0 2.0 0.00 0.38 0.36 100 1015.7
20260903124734 71 261 0.0 4.0 0.00 0.39 0.36 100 1015.8
20260903123734 71 200 0.0 1.0 0.00 0.39 0.36 100 1015.6
20260903122729 70 191 0.0 1.0 0.00 0.39 0.36 100 1016.1
20260903121730 70 269 0.0 1.0 0.00 0.39 0.36 100 1016.0
20260903120729 69 91 0.0 0.0 0.00 0.39 0.36 100 1015.4
20260903115727 69 88 0.0 0.0 0.00 0.39 0.36 100 1015.3
20260903114725 69 89 0.0 0.0 0.00 0.39 0.36 100 1015.9
20260903113727 69 235 0.0 0.0 0.00 0.39 0.36 100 1015.7
20260903112729 69 235 0.0 0.0 0.00 0.39 0.36 100 1015.5
20260903111728 69 235 0.0 0.0 0.00 0.39 0.36 100 1015.8
20260903110726 69 235 0.0 0.0 0.00 0.39 0.36 100 1015.8
20260903105725 69 235 0.0 0.0 0.00 0.39 0.36 100 1015.8
20260903104726 69 235 0.0 1.0 0.00 0.39 0.36 100 1016.3
20260903103726 69 227 0.0 0.0 0.01 0.39 0.36 100 1015.9
20260903101724 69 271 0.0 3.0 0.01 0.39 0.36 100 1015.7
20260903100722 69 214 0.0 5.0 0.02 0.39 0.36 100 1015.4
20260903094715 69 287 0.0 3.0 0.04 0.39 0.36 100 1015.4
20260903093714 69 272 1.0 5.0 0.04 0.38 0.35 100 1015.5
20260903092714 69 283 1.0 5.0 0.05 0.38 0.35 100 1015.2
20260903091714 69 250 1.0 7.0 0.07 0.38 0.35 100 1015.1
20260903090713 69 289 1.0 4.0 0.07 0.37 0.34 100 1015.0
20260903085714 69 188 0.0 4.0 0.07 0.36 0.33 100 1015.0
20260903083708 69 195 0.0 3.0 0.06 0.34 0.31 100 1015.7
20260903082707 69 136 0.0 2.0 0.05 0.33 0.30 100 1016.8
20260903080705 69 247 0.0 2.0 0.03 0.31 0.27 100 1017.5
20260903074706 68 198 0.0 0.0 0.04 0.30 0.26 100 1016.6
20260903073705 68 190 0.0 0.0 0.05 0.29 0.25 100 1016.6
20260903072705 68 190 0.0 0.0 0.08 0.29 0.25 100 1016.3
20260903071706 68 190 0.0 0.0 0.10 0.28 0.24 100 1016.7
20260903070703 68 190 0.0 0.0 0.11 0.28 0.24 100 1016.3
20260903065706 68 190 0.0 0.0 0.11 0.27 0.23 100 1016.7
20260903064704 68 190 0.0 0.0 0.12 0.26 0.22 100 1017.0
20260903062703 68 273 0.0 0.0 0.12 0.21 0.18 100 1017.4
20260903060703 68 273 0.0 0.0 0.12 0.17 0.13 100 1017.2
20260903055704 68 274 0.0 0.0 0.11 0.16 0.12 100 1017.5
20260903054701 69 250 0.0 0.0 0.09 0.14 0.10 100 1018.0
20260903053701 69 250 0.0 0.0 0.08 0.12 0.08 100 1018.0
20260903052701 69 250 0.0 0.0 0.05 0.09 0.05 100 1018.4
20260903051702 69 250 0.0 0.0 0.03 0.07 0.03 100 1018.5
20260903045658 69 250 0.0 0.0 0.01 0.05 0.01 100 1018.9
20260903044656 69 250 0.0 0.0 0.01 0.05 0.01 100 1019.0
20260903043655 69 79 0.0 0.0 0.00 0.04 0.00 100 1019.1
20260903042653 69 81 0.0 0.0 0.00 0.04 0.00 100 1018.7
20260903041648 69 81 0.0 0.0 0.00 0.04 0.00 100 1018.9
20260903040648 69 81 0.0 0.0 0.00 0.04 0.00 100 1018.9
20260903034642 69 81 0.0 0.0 0.00 0.04 0.04 100 1019.0
20260903033639 69 81 0.0 0.0 0.00 0.04 0.04 100 1019.0
20260903031639 69 81 0.0 0.0 0.00 0.04 0.04 100 1018.6
20260903025640 69 81 0.0 0.0 0.00 0.04 0.04 100 1018.7
20260903023632 69 81 0.0 0.0 0.00 0.04 0.04 100 1018.7
20260903022631 69 81 0.0 0.0 0.00 0.04 0.04 100 1018.8
20260903021631 69 81 0.0 0.0 0.00 0.04 0.04 100 1019.4
20260903020631 69 81 0.0 0.0 0.00 0.04 0.04 100 1019.0
20260903014632 69 81 0.0 0.0 0.00 0.04 0.04 100 1018.9
20260903013633 69 81 0.0 0.0 0.00 0.04 0.04 100 1018.7
20260903012632 69 81 0.0 0.0 0.00 0.04 0.04 100 1019.0
20260903011627 69 81 0.0 0.0 0.01 0.04 0.04 100 1019.0
20260903010630 69 81 0.0 0.0 0.01 0.04 0.04 100 1019.1
20260903005627 69 81 0.0 0.0 0.01 0.04 0.04 99 1019.4
20260903004624 69 81 0.0 0.0 0.01 0.04 0.04 99 1019.3
20260903003625 69 81 0.0 0.0 0.01 0.04 0.04 99 1019.4
20260903002625 69 81 0.0 0.0 0.01 0.04 0.04 99 1019.3
20260903001625 69 81 0.0 0.0 0.00 0.04 0.03 99 1019.2
20260903000626 69 81 0.0 0.0 0.00 0.07 0.03 98 1019.0
20260902235625 69 81 0.0 0.0 0.00 0.10 0.03 98 1018.8